CW0104 Weather Reports


Display with metric or nautical units.
time (UTC)temp
F
wind
direction
speed
MPH
gust
MPH
rain 1hr
in
rain 24hr
in
rain mn
in
humidity
%
barometer
mb
20181021164748 46 336 6.0 21.0 0.00 0.02 0.02 53 1008.4
20181021164248 46 300 8.0 21.0 0.00 0.02 0.02 52 1008.4
20181021163750 46 30 5.0 20.0 0.00 0.02 0.02 53 1008.4
20181021163244 46 301 5.0 19.0 0.00 0.02 0.02 53 1008.4
20181021162746 45 245 6.0 18.0 0.00 0.02 0.02 54 1008.3
20181021162245 45 279 6.0 18.0 0.00 0.02 0.02 53 1008.3
20181021161743 45 25 6.0 20.0 0.00 0.02 0.02 54 1008.3
20181021161245 45 319 6.0 20.0 0.00 0.02 0.02 54 1008.2
20181021160739 45 325 6.0 16.0 0.00 0.02 0.02 54 1008.2
20181021160236 45 287 5.0 16.0 0.00 0.02 0.02 55 1008.2
20181021155736 44 288 6.0 18.0 0.00 0.02 0.02 55 1007.9
20181021155237 44 349 6.0 18.0 0.00 0.02 0.02 55 1007.9
20181021154737 44 321 6.0 20.0 0.00 0.02 0.02 56 1007.9
20181021154235 44 12 5.0 20.0 0.00 0.02 0.02 56 1008.0
20181021153735 44 319 5.0 15.0 0.00 0.02 0.02 57 1008.0
20181021153233 44 290 6.0 15.0 0.00 0.02 0.02 57 1008.0
20181021152734 44 302 6.0 16.0 0.00 0.02 0.02 57 1007.9
20181021152233 44 344 5.0 16.0 0.00 0.02 0.02 60 1007.9
20181021151734 45 265 2.0 9.0 0.00 0.02 0.02 58 1007.9
20181021151233 45 0 2.0 9.0 0.00 0.02 0.02 59 1007.7
20181021150733 44 13 2.0 9.0 0.00 0.02 0.02 59 1007.7
20181021150234 44 327 2.0 9.0 0.00 0.02 0.02 60 1007.7
20181021145731 44 321 2.0 9.0 0.00 0.02 0.02 59 1007.6
20181021145232 44 323 2.0 8.0 0.00 0.02 0.02 60 1007.6
20181021144731 44 5 2.0 11.0 0.00 0.02 0.02 60 1007.6
20181021144232 44 311 4.0 15.0 0.00 0.02 0.02 61 1007.4
20181021143731 44 312 5.0 15.0 0.00 0.02 0.02 61 1007.4
20181021143228 44 311 5.0 15.0 0.00 0.02 0.02 63 1007.4
20181021142727 44 325 4.0 15.0 0.00 0.02 0.02 64 1007.3
20181021142226 44 5 2.0 13.0 0.00 0.02 0.02 65 1007.3
20181021141728 44 342 1.0 6.0 0.00 0.02 0.02 68 1007.3
20181021141217 44 5 1.0 6.0 0.00 0.02 0.02 70 1007.3
20181021140705 44 351 2.0 9.0 0.01 0.02 0.02 71 1007.3
20181021140206 44 21 2.0 9.0 0.01 0.02 0.02 72 1007.3
20181021135656 44 321 1.0 8.0 0.01 0.02 0.02 74 1007.1
20181021135150 43 269 1.0 8.0 0.01 0.02 0.02 76 1007.1
20181021134657 43 323 2.0 19.0 0.01 0.02 0.02 78 1007.1
20181021134135 43 340 4.0 19.0 0.01 0.02 0.02 81 1006.8
20181021133632 43 346 1.0 8.0 0.01 0.02 0.02 84 1006.8
20181021133131 43 303 1.0 6.0 0.01 0.02 0.02 85 1006.8
20181021132631 43 355 0.0 4.0 0.01 0.02 0.02 86 1006.7
20181021132132 43 5 0.0 0.0 0.01 0.02 0.02 86 1006.7
20181021131628 43 5 0.0 0.0 0.01 0.02 0.02 86 1006.7
20181021131124 43 5 0.0 0.0 0.01 0.02 0.02 85 1006.4
20181021130559 43 5 0.0 0.0 0.00 0.01 0.01 85 1006.4
20181021130100 43 5 0.0 0.0 0.00 0.01 0.01 85 1006.3
20181021125540 43 5 0.0 0.0 0.00 0.01 0.01 85 1006.3
20181021125031 43 5 0.0 1.0 0.00 0.01 0.01 85 1006.3
20181021124524 43 5 0.0 4.0 0.00 0.01 0.01 85 1006.3
20181021124018 43 5 0.0 4.0 0.01 0.01 0.01 85 1006.3
20181021123500 43 5 0.0 2.0 0.01 0.01 0.01 85 1006.3
20181021122958 43 5 0.0 0.0 0.01 0.01 0.01 85 1005.8
20181021122451 43 5 0.0 0.0 0.01 0.01 0.01 84 1005.8
20181021121946 43 5 1.0 6.0 0.01 0.01 0.01 83 1005.8
20181021121443 43 5 1.0 6.0 0.01 0.01 0.01 82 1005.7
20181021120943 43 5 1.0 9.0 0.01 0.01 0.01 82 1005.7
20181021120443 43 317 1.0 9.0 0.01 0.01 0.01 81 1005.7
20181021115944 44 11 1.0 8.0 0.01 0.01 0.01 80 1005.3
20181021115433 44 11 1.0 8.0 0.01 0.01 0.01 79 1005.3
20181021114930 44 355 1.0 9.0 0.01 0.01 0.01 79 1005.3
20181021114427 44 355 1.0 9.0 0.00 0.00 0.00 77 1005.0
20181021113909 44 9 1.0 8.0 0.00 0.00 0.00 75 1005.0
20181021113402 45 0 2.0 9.0 0.00 0.00 0.00 73 1005.0
20181021112859 45 292 2.0 9.0 0.00 0.00 0.00 71 1004.6
20181021112350 46 350 2.0 9.0 0.00 0.00 0.00 70 1004.6
20181021111850 46 20 4.0 14.0 0.00 0.00 0.00 68 1004.6
20181021111346 46 5 5.0 14.0 0.00 0.00 0.00 67 1004.0
20181021110842 46 313 3.0 19.0 0.00 0.00 0.00 67 1004.0
20181021110342 46 351 4.0 19.0 0.00 0.00 0.00 67 1004.0
20181021105842 46 49 2.0 9.0 0.00 0.00 0.00 68 1003.7
20181021105343 46 346 2.0 8.0 0.00 0.00 0.00 68 1003.7
20181021104841 46 13 2.0 9.0 0.00 0.00 0.00 69 1003.7
20181021104335 46 5 1.0 9.0 0.00 0.00 0.00 68 1003.3
20181021103836 47 355 1.0 5.0 0.00 0.00 0.00 69 1003.3
20181021103338 47 351 2.0 9.0 0.00 0.00 0.00 69 1003.3
20181021102811 47 344 2.0 9.0 0.00 0.00 0.00 68 1003.3
20181021102311 47 338 1.0 6.0 0.00 0.00 0.00 69 1003.3
20181021101811 47 5 0.0 2.0 0.00 0.00 0.00 70 1003.3
20181021101302 47 5 0.0 2.0 0.00 0.00 0.00 71 1002.7
20181021100803 47 5 0.0 1.0 0.00 0.00 0.00 71 1002.7
20181021100303 47 5 0.0 4.0 0.00 0.00 0.00 70 1002.7
20181021095803 47 5 1.0 5.0 0.00 0.00 0.00 70 1002.7
20181021095231 47 350 1.0 6.0 0.00 0.00 0.00 71 1002.7
20181021094730 47 5 1.0 6.0 0.00 0.00 0.00 71 1002.7
20181021094231 47 331 0.0 4.0 0.00 0.00 0.00 71 1002.1
20181021093731 47 313 0.0 4.0 0.00 0.00 0.00 72 1002.1
20181021093227 47 0 0.0 5.0 0.00 0.00 0.00 73 1002.1
20181021092723 47 305 1.0 8.0 0.00 0.00 0.00 74 1001.7
20181021092208 47 340 1.0 8.0 0.00 0.00 0.00 75 1001.7
20181021091706 47 9 0.0 4.0 0.00 0.00 0.00 77 1001.7
20181021091203 47 355 0.0 1.0 0.00 0.00 0.00 79 1001.4
20181021090703 47 355 0.0 2.0 0.00 0.00 0.00 81 1001.4
20181021090202 47 355 0.0 2.0 0.00 0.00 0.00 83 1001.4
20181021085703 47 355 0.0 2.0 0.00 0.00 0.00 85 1001.1
20181021085202 47 5 0.0 0.0 0.00 0.00 0.00 87 1001.1
20181021084659 47 5 0.0 1.0 0.00 0.00 0.00 88 1001.1
20181021084158 47 5 0.0 2.0 0.00 0.00 0.00 89 1001.0
20181021083645 47 5 0.0 2.0 0.00 0.00 0.00 91 1001.0
20181021083133 46 315 0.0 0.0 0.00 0.00 0.00 92 1001.0
20181021082633 46 315 0.0 0.0 0.00 0.00 0.00 94 1000.8
20181021082125 46 315 0.0 0.0 0.00 0.00 0.00 94 1000.8
20181021081557 47 315 0.0 0.0 0.00 0.00 0.00 95 1000.5
20181021081047 47 315 0.0 0.0 0.00 0.00 0.00 95 1000.5
20181021080547 47 315 0.0 0.0 0.00 0.00 0.00 95 1000.5
20181021080019 47 315 0.0 0.0 0.00 0.00 0.00 95 1000.4
20181021075519 47 315 0.0 0.0 0.00 0.00 0.00 95 1000.4
20181021075001 47 315 0.0 0.0 0.00 0.00 0.00 95 1000.4
20181021074502 47 315 0.0 0.0 0.00 0.00 0.00 95 1000.5
20181021073926 47 315 0.0 0.0 0.00 0.00 0.00 95 1000.5
20181021073401 46 315 0.0 0.0 0.00 0.00 0.00 95 1000.5
20181021072859 46 315 0.0 0.0 0.00 0.00 0.00 95 1000.3
20181021072356 46 315 0.0 0.0 0.00 0.00 0.00 95 1000.3
20181021071856 46 315 0.0 0.0 0.00 0.00 0.00 95 1000.3
20181021071356 46 315 0.0 0.0 0.00 0.00 0.00 94 999.9
20181021070854 46 315 0.0 0.0 0.00 0.00 0.00 94 999.9
20181021070336 47 315 0.0 0.0 0.00 0.00 0.00 94 999.9
20181021065823 47 315 0.0 0.0 0.00 0.00 0.00 93 1000.1
20181021065315 47 315 0.0 0.0 0.00 0.00 0.00 93 1000.1
20181021064801 47 315 0.0 0.0 0.00 0.00 0.00 93 1000.1
20181021064300 47 315 0.0 0.0 0.00 0.00 0.00 93 1000.4
20181021063743 47 315 0.0 0.0 0.00 0.00 0.00 93 1000.4
20181021063234 47 315 0.0 0.0 0.00 0.00 0.00 92 1000.4
20181021062727 47 315 0.0 0.0 0.00 0.00 0.00 92 1000.3
20181021062203 47 315 0.0 0.0 0.00 0.00 0.00 92 1000.3
20181021061636 47 315 0.0 0.0 0.00 0.00 0.00 92 1000.3
20181021061134 47 315 0.0 0.0 0.00 0.00 0.00 93 1000.5
20181021060621 47 315 0.0 0.0 0.00 0.00 0.00 93 1000.5
20181021060106 47 315 0.0 0.0 0.00 0.00 0.00 94 1000.9
20181021055551 47 315 0.0 0.0 0.00 0.00 0.00 94 1000.9
20181021055050 46 315 0.0 0.0 0.00 0.00 0.00 95 1000.9
20181021054531 46 315 0.0 0.0 0.00 0.00 0.00 95 1001.0
20181021054012 46 315 0.0 0.0 0.00 0.00 0.00 95 1001.0
20181021053508 45 315 0.0 0.0 0.00 0.00 0.00 95 1001.0
20181021052955 45 315 0.0 0.0 0.00 0.00 0.00 95 1001.0
20181021052445 45 315 0.0 0.0 0.00 0.00 0.00 95 1001.0
20181021051902 45 315 0.0 0.0 0.00 0.00 0.00 95 1001.0
20181021051403 45 315 0.0 0.0 0.00 0.00 0.00 95 1001.0
20181021050835 45 315 0.0 0.0 0.00 0.00 0.00 95 1001.0
20181021050336 45 315 0.0 0.0 0.00 0.00 0.00 95 1001.0
20181021045816 45 315 0.0 0.0 0.00 0.00 0.00 95 1001.1
20181021045257 44 315 0.0 0.0 0.00 0.00 0.00 95 1001.1
20181021044756 44 315 0.0 0.0 0.00 0.00 0.00 95 1001.1
20181021044228 44 315 0.0 0.0 0.00 0.00 0.00 95 1001.2
20181021043725 44 315 0.0 0.0 0.00 0.00 0.00 94 1001.2
20181021043204 44 315 0.0 0.0 0.00 0.00 0.00 94 1001.2
20181021042659 44 315 0.0 0.0 0.00 0.00 0.00 94 1001.1
20181021042144 44 315 0.0 0.0 0.00 0.00 0.00 94 1001.1
20181021041645 43 315 0.0 0.0 0.00 0.00 0.00 94 1001.1
20181021041120 43 315 0.0 0.0 0.00 0.00 0.00 93 1001.2
20181021040620 43 315 0.0 0.0 0.00 0.00 0.00 93 1001.2
20181021040112 43 315 0.0 0.0 0.00 0.00 0.00 92 1001.4
20181021035559 43 315 0.0 0.0 0.00 0.00 0.00 92 1001.4
20181021035057 44 315 0.0 0.0 0.00 0.00 0.00 92 1001.4
20181021034557 44 315 0.0 0.0 0.00 0.00 0.00 92 1001.5
20181021034043 44 315 0.0 0.0 0.00 0.00 0.00 91 1001.5
20181021033532 44 315 0.0 0.0 0.00 0.00 0.00 91 1001.5
20181021033011 44 315 0.0 0.0 0.00 0.00 0.00 91 1001.5
20181021032447 44 315 0.0 0.0 0.00 0.00 0.00 91 1001.5
20181021031949 45 315 0.0 0.0 0.00 0.00 0.00 90 1001.5
20181021031419 45 315 0.0 0.0 0.00 0.00 0.00 90 1001.5
20181021030838 45 315 0.0 0.0 0.00 0.00 0.00 90 1001.5
20181021030337 45 315 0.0 0.0 0.00 0.00 0.00 90 1001.5
20181021025821 45 315 0.0 0.0 0.00 0.00 0.00 89 1001.5
20181021025311 45 315 0.0 0.0 0.00 0.00 0.00 89 1001.5
20181021024745 46 315 0.0 0.0 0.00 0.00 0.00 89 1001.5
20181021024236 46 315 0.0 0.0 0.00 0.00 0.00 89 1001.5
20181021023726 46 315 0.0 0.0 0.00 0.00 0.00 89 1001.5
20181021023212 46 315 0.0 0.0 0.00 0.00 0.00 88 1001.5
20181021022712 46 315 0.0 0.0 0.00 0.00 0.00 87 1001.5
20181021022153 46 315 0.0 0.0 0.00 0.00 0.00 87 1001.5
20181021021644 46 315 0.0 0.0 0.00 0.00 0.00 86 1001.5
20181021021129 47 315 0.0 0.0 0.00 0.00 0.00 86 1001.4
20181021020614 47 315 0.0 0.0 0.00 0.00 0.00 85 1001.4
20181021020111 47 315 0.0 0.0 0.00 0.00 0.00 85 1001.4
20181021015601 47 315 0.0 0.0 0.00 0.00 0.00 84 1001.1
20181021015057 48 315 0.0 0.0 0.00 0.00 0.00 84 1001.1
20181021014545 48 315 0.0 0.0 0.00 0.00 0.00 82 1001.2
20181021014032 48 315 0.0 0.0 0.00 0.00 0.00 81 1001.2
20181021013526 49 315 0.0 0.0 0.00 0.00 0.00 78 1001.2
20181021013019 50 315 0.0 0.0 0.00 0.00 0.00 74 1001.1
20181021012507 50 315 0.0 0.0 0.00 0.00 0.00 73 1001.1
20181021012004 50 315 0.0 0.0 0.00 0.00 0.00 73 1001.1
20181021011449 50 315 0.0 0.0 0.00 0.00 0.00 73 1001.1
20181021010935 51 315 0.0 0.0 0.00 0.00 0.00 73 1001.1
20181021010434 51 315 0.0 0.0 0.00 0.00 0.00 72 1001.1
20181021005929 51 315 0.0 0.0 0.00 0.00 0.00 72 1001.0
20181021005402 51 315 0.0 0.0 0.00 0.00 0.00 72 1001.0
20181021004839 51 315 0.0 0.0 0.00 0.00 0.00 72 1001.0
20181021004326 51 315 0.0 0.0 0.00 0.00 0.00 72 1001.0
20181021003815 51 315 0.0 0.0 0.00 0.00 0.00 71 1001.0
20181021003309 52 315 0.0 0.0 0.00 0.00 0.00 71 1001.1
20181021002752 52 315 0.0 0.0 0.00 0.00 0.00 71 1001.1
20181021002249 52 315 0.0 0.0 0.00 0.00 0.00 70 1001.1
20181021001747 52 315 0.0 0.0 0.00 0.00 0.00 70 1001.1
20181021001221 53 315 0.0 0.0 0.00 0.00 0.00 70 1001.4
20181021000706 53 315 0.0 0.0 0.00 0.00 0.00 70 1001.4
20181021000207 53 315 0.0 0.0 0.00 0.00 0.00 70 1001.4
20181020235700 53 315 0.0 0.0 0.00 0.00 0.00 70 1001.2
20181020235144 54 315 0.0 0.0 0.00 0.00 0.00 69 1001.2
20181020234630 54 315 0.0 0.0 0.00 0.00 0.00 69 1001.2
20181020234124 54 315 0.0 0.0 0.00 0.00 0.00 68 1001.1
20181020233612 55 315 0.0 0.0 0.00 0.00 0.00 68 1001.1
20181020233050 55 315 0.0 0.0 0.00 0.00 0.00 68 1001.1
20181020232540 55 315 0.0 0.0 0.00 0.00 0.00 67 1001.1
20181020232037 55 315 0.0 0.0 0.00 0.00 0.00 67 1001.1
20181020231524 56 315 0.0 0.0 0.00 0.00 0.00 67 1001.1
20181020231008 56 315 0.0 0.0 0.00 0.00 0.00 66 1001.1
20181020230454 56 315 0.0 0.0 0.00 0.00 0.00 66 1001.1
20181020225951 56 315 0.0 0.0 0.00 0.00 0.00 65 1000.9
20181020225450 57 315 0.0 0.0 0.00 0.00 0.00 65 1000.9
20181020224930 57 315 0.0 0.0 0.00 0.00 0.00 64 1000.9
20181020224406 57 315 0.0 0.0 0.00 0.00 0.00 64 1000.8
20181020223904 57 315 0.0 0.0 0.00 0.00 0.00 63 1000.8
20181020223404 57 315 0.0 0.0 0.00 0.00 0.00 63 1000.8
20181020222903 58 315 0.0 0.0 0.00 0.00 0.00 62 1000.6
20181020222402 58 315 0.0 0.0 0.00 0.00 0.00 62 1000.6
20181020221902 58 315 0.0 0.0 0.00 0.00 0.00 62 1000.6
20181020221328 58 315 0.0 1.0 0.00 0.00 0.00 62 1000.6
20181020220810 58 315 0.0 1.0 0.00 0.00 0.00 62 1000.6
20181020220306 59 315 0.0 0.0 0.00 0.00 0.00 62 1000.6
20181020215749 59 323 0.0 0.0 0.00 0.00 0.00 61 1000.6
20181020215249 59 323 0.0 2.0 0.00 0.00 0.00 61 1000.6
20181020214722 59 323 0.0 2.0 0.00 0.00 0.00 61 1000.6
20181020214222 59 324 0.0 2.0 0.00 0.00 0.00 61 1000.6
20181020213711 60 324 0.0 2.0 0.00 0.00 0.00 60 1000.6
20181020213210 60 322 0.0 2.0 0.00 0.00 0.00 60 1000.6
20181020212711 60 322 0.0 2.0 0.00 0.00 0.00 60 1000.6
20181020212209 60 321 0.0 1.0 0.00 0.00 0.00 60 1000.7
20181020211709 60 321 1.0 8.0 0.00 0.00 0.00 61 1000.7
20181020211210 61 305 1.0 8.0 0.00 0.00 0.00 61 1000.5
20181020210707 61 319 0.0 6.0 0.00 0.00 0.00 62 1000.5
20181020210207 61 221 0.0 1.0 0.00 0.00 0.00 63 1000.5
20181020205708 61 221 0.0 0.0 0.00 0.00 0.00 63 1000.6
20181020205155 61 221 0.0 0.0 0.00 0.00 0.00 63 1000.6
20181020204651 61 221 0.0 1.0 0.00 0.00 0.00 63 1000.6
20181020204151 61 221 0.0 5.0 0.00 0.00 0.00 63 1000.7
20181020203650 61 221 0.0 5.0 0.00 0.00 0.00 63 1000.7
20181020203138 61 219 0.0 1.0 0.00 0.00 0.00 63 1000.7
20181020202632 61 219 0.0 1.0 0.00 0.00 0.00 62 1000.7
20181020202119 61 219 0.0 1.0 0.00 0.00 0.00 62 1000.7
20181020201615 61 219 0.0 5.0 0.00 0.00 0.00 62 1000.7
20181020201102 61 219 0.0 5.0 0.00 0.00 0.00 62 1000.7
20181020200551 61 218 1.0 5.0 0.00 0.00 0.00 62 1000.7
20181020200033 61 218 0.0 4.0 0.00 0.00 0.00 62 1000.7
20181020195535 61 215 0.0 1.0 0.00 0.00 0.00 62 1000.7
20181020195019 61 215 0.0 2.0 0.00 0.00 0.00 62 1000.7
20181020194510 61 215 0.0 5.0 0.00 0.00 0.00 62 1000.7
20181020194003 61 215 0.0 5.0 0.00 0.00 0.00 62 1000.7
20181020193501 61 215 0.0 4.0 0.00 0.00 0.00 62 1000.7
20181020193001 61 214 0.0 4.0 0.00 0.00 0.00 63 1001.1
20181020192442 61 214 0.0 4.0 0.00 0.00 0.00 62 1001.1
20181020191943 61 179 0.0 1.0 0.00 0.00 0.00 63 1001.1
20181020191415 61 179 0.0 1.0 0.00 0.00 0.00 63 1001.2
20181020190915 61 179 0.0 5.0 0.00 0.00 0.00 62 1001.2
20181020190415 61 180 0.0 5.0 0.00 0.00 0.00 61 1001.2
20181020185910 61 211 0.0 5.0 0.00 0.00 0.00 61 1001.2
20181020185409 61 300 0.0 4.0 0.00 0.00 0.00 62 1001.2
20181020184857 61 237 0.0 4.0 0.00 0.00 0.00 61 1001.2
20181020184349 61 264 1.0 5.0 0.00 0.00 0.00 62 1001.3
20181020183841 61 224 1.0 5.0 0.00 0.00 0.00 62 1001.3
20181020183335 61 51 0.0 5.0 0.00 0.00 0.00 62 1001.3
20181020182836 61 54 1.0 8.0 0.00 0.00 0.00 62 1001.3
20181020182337 61 313 1.0 8.0 0.00 0.00 0.00 62 1001.3
20181020181830 61 232 0.0 6.0 0.00 0.00 0.00 62 1001.3
20181020181316 61 270 0.0 2.0 0.00 0.00 0.00 62 1001.7
20181020180805 62 298 0.0 8.0 0.00 0.00 0.00 63 1001.7
20181020180302 62 290 1.0 8.0 0.00 0.00 0.00 63 1001.7
20181020175757 62 225 0.0 5.0 0.00 0.00 0.00 64 1001.7
20181020175252 62 233 1.0 6.0 0.00 0.00 0.00 63 1001.7
20181020174739 61 233 1.0 6.0 0.00 0.00 0.00 64 1001.7
20181020174233 61 313 1.0 5.0 0.00 0.00 0.00 64 1001.7
20181020173735 61 221 2.0 8.0 0.00 0.00 0.00 64 1001.7
20181020173234 61 308 1.0 8.0 0.00 0.00 0.00 65 1001.7
20181020172735 61 182 1.0 6.0 0.00 0.00 0.00 66 1002.1
20181020172226 61 205 1.0 6.0 0.00 0.00 0.00 66 1002.1
20181020171722 60 213 1.0 6.0 0.00 0.00 0.00 66 1002.1
20181020171216 60 269 1.0 8.0 0.00 0.00 0.00 66 1002.4
20181020170714 60 47 2.0 8.0 0.00 0.00 0.00 67 1002.4
20181020170215 60 256 2.0 8.0 0.00 0.00 0.00 67 1002.4